Time,TemperatureF,DewpointF,PressureIn,WindDirection,WindDirectionDegrees,WindSpeedMPH,WindSpeedGustMPH,Humidity,HourlyPrecipIn,Conditions,Clouds,dailyrainin,SoftwareType,DateUTC
2013-02-10 00:02:00,63.0,-99.9,30.14,ESE,119,21.0,28.0,-999,-99.99,,,-99.99,,2013-02-10 06:02:00,
2013-02-10 00:11:00,63.0,-99.9,30.14,ESE,116,23.0,25.0,-999,-99.99,,,-99.99,,2013-02-10 06:11:00,
2013-02-10 00:21:00,63.0,-99.9,30.13,ESE,115,21.0,25.0,-999,-99.99,,,-99.99,,2013-02-10 06:21:00,
2013-02-10 00:32:00,63.0,-99.9,30.13,ESE,111,21.0,25.0,-999,-99.99,,,-99.99,,2013-02-10 06:32:00,
2013-02-10 00:42:00,63.0,-99.9,30.13,ESE,112,20.0,24.0,-999,-99.99,,,-99.99,,2013-02-10 06:42:00,
2013-02-10 00:52:00,63.0,-99.9,30.13,ESE,111,21.0,23.0,-999,-99.99,,,-99.99,,2013-02-10 06:52:00,
2013-02-10 01:01:00,63.0,-99.9,30.12,ESE,112,19.0,23.0,-999,-99.99,,,-99.99,,2013-02-10 07:01:00,
2013-02-10 01:11:00,63.0,-99.9,30.13,ESE,116,19.0,23.0,-999,-99.99,,,-99.99,,2013-02-10 07:11:00,
2013-02-10 01:21:00,63.0,-99.9,30.12,ESE,117,20.0,23.0,-999,-99.99,,,-99.99,,2013-02-10 07:21:00,
2013-02-10 01:32:00,63.0,-99.9,30.12,ESE,119,19.0,22.0,-999,-99.99,,,-99.99,,2013-02-10 07:32:00,
2013-02-10 01:42:00,63.0,-99.9,30.12,ESE,114,20.0,22.0,-999,-99.99,,,-99.99,,2013-02-10 07:42:00,
2013-02-10 01:52:00,63.0,-99.9,30.12,ESE,112,20.0,22.0,-999,-99.99,,,-99.99,,2013-02-10 07:52:00,
2013-02-10 02:01:00,63.0,-99.9,30.12,ESE,110,17.0,21.0,-999,-99.99,,,-99.99,,2013-02-10 08:01:00,
2013-02-10 02:11:00,63.0,-99.9,30.11,ESE,108,18.0,20.0,-999,-99.99,,,-99.99,,2013-02-10 08:11:00,
2013-02-10 02:21:00,63.0,-99.9,30.12,ESE,110,15.0,19.0,-999,-99.99,,,-99.99,,2013-02-10 08:21:00,
2013-02-10 02:32:00,63.0,-99.9,30.12,ESE,112,16.0,18.0,-999,-99.99,,,-99.99,,2013-02-10 08:32:00,
2013-02-10 02:43:00,63.0,-99.9,30.13,ESE,114,13.0,17.0,-999,-99.99,,,-99.99,,2013-02-10 08:43:00,
2013-02-10 02:52:00,63.0,-99.9,30.12,ESE,111,15.0,18.0,-999,-99.99,,,-99.99,,2013-02-10 08:52:00,
2013-02-10 03:02:00,63.0,-99.9,30.12,ESE,103,17.0,18.0,-999,-99.99,,,-99.99,,2013-02-10 09:02:00,
2013-02-10 03:11:00,63.0,-99.9,30.12,ESE,108,16.0,19.0,-999,-99.99,,,-99.99,,2013-02-10 09:11:00,
2013-02-10 03:21:00,63.0,-99.9,30.12,ESE,113,16.0,17.0,-999,-99.99,,,-99.99,,2013-02-10 09:21:00,
2013-02-10 03:32:00,63.0,-99.9,30.12,ESE,119,14.0,16.0,-999,-99.99,,,-99.99,,2013-02-10 09:32:00,
2013-02-10 03:42:00,63.0,-99.9,30.12,SE,125,14.0,17.0,-999,-99.99,,,-99.99,,2013-02-10 09:42:00,
2013-02-10 03:52:00,63.0,-99.9,30.11,ESE,119,15.0,16.0,-999,-99.99,,,-99.99,,2013-02-10 09:52:00,
2013-02-10 04:01:00,63.0,-99.9,30.11,ESE,115,15.0,17.0,-999,-99.99,,,-99.99,,2013-02-10 10:01:00,
2013-02-10 04:11:00,63.0,-99.9,30.10,ESE,110,15.0,18.0,-999,-99.99,,,-99.99,,2013-02-10 10:11:00,
2013-02-10 04:21:00,63.0,-99.9,30.09,ESE,111,17.0,19.0,-999,-99.99,,,-99.99,,2013-02-10 10:21:00,
2013-02-10 04:32:00,63.0,-99.9,30.08,ESE,112,19.0,22.0,-999,-99.99,,,-99.99,,2013-02-10 10:32:00,
2013-02-10 04:42:00,63.0,-99.9,30.08,ESE,114,18.0,21.0,-999,-99.99,,,-99.99,,2013-02-10 10:42:00,
2013-02-10 04:52:00,63.0,-99.9,30.08,ESE,115,18.0,22.0,-999,-99.99,,,-99.99,,2013-02-10 10:52:00,
2013-02-10 05:01:00,63.0,-99.9,30.08,ESE,116,19.0,25.0,-999,-99.99,,,-99.99,,2013-02-10 11:01:00,
2013-02-10 05:11:00,63.0,-99.9,30.06,ESE,113,23.0,25.0,-999,-99.99,,,-99.99,,2013-02-10 11:11:00,
2013-02-10 05:22:00,64.0,-99.9,30.07,ESE,112,21.0,24.0,-999,-99.99,,,-99.99,,2013-02-10 11:22:00,
2013-02-10 05:32:00,64.0,-99.9,30.08,ESE,117,20.0,23.0,-999,-99.99,,,-99.99,,2013-02-10 11:32:00,
2013-02-10 05:42:00,64.0,-99.9,30.08,ESE,116,21.0,24.0,-999,-99.99,,,-99.99,,2013-02-10 11:42:00,
2013-02-10 05:52:00,64.0,-99.9,30.08,ESE,118,21.0,24.0,-999,-99.99,,,-99.99,,2013-02-10 11:52:00,
2013-02-10 06:02:00,64.0,-99.9,30.07,ESE,114,21.0,24.0,-999,-99.99,,,-99.99,,2013-02-10 12:02:00,
2013-02-10 06:12:00,64.0,-99.9,30.07,ESE,113,21.0,24.0,-999,-99.99,,,-99.99,,2013-02-10 12:12:00,
2013-02-10 06:22:00,64.0,-99.9,30.06,ESE,120,22.0,26.0,-999,-99.99,,,-99.99,,2013-02-10 12:22:00,
2013-02-10 06:32:00,64.0,-99.9,30.07,ESE,122,24.0,26.0,-999,-99.99,,,-99.99,,2013-02-10 12:32:00,
2013-02-10 06:42:00,64.0,-99.9,30.07,ESE,121,23.0,26.0,-999,-99.99,,,-99.99,,2013-02-10 12:42:00,
2013-02-10 06:52:00,64.0,-99.9,30.07,ESE,119,23.0,25.0,-999,-99.99,,,-99.99,,2013-02-10 12:52:00,
2013-02-10 07:02:00,64.0,-99.9,30.07,ESE,121,22.0,25.0,-999,-99.99,,,-99.99,,2013-02-10 13:02:00,
2013-02-10 07:12:00,64.0,-99.9,30.08,ESE,121,21.0,24.0,-999,-99.99,,,-99.99,,2013-02-10 13:12:00,
2013-02-10 07:21:00,64.0,-99.9,30.08,ESE,123,21.0,24.0,-999,-99.99,,,-99.99,,2013-02-10 13:21:00,
2013-02-10 07:32:00,64.0,-99.9,30.09,ESE,120,21.0,25.0,-999,-99.99,,,-99.99,,2013-02-10 13:32:00,
2013-02-10 07:42:00,64.0,-99.9,30.09,ESE,122,20.0,22.0,-999,-99.99,,,-99.99,,2013-02-10 13:42:00,
2013-02-10 07:52:00,64.0,-99.9,30.09,ESE,121,21.0,26.0,-999,-99.99,,,-99.99,,2013-02-10 13:52:00,
2013-02-10 08:02:00,64.0,-99.9,30.09,ESE,123,23.0,25.0,-999,-99.99,,,-99.99,,2013-02-10 14:02:00,
2013-02-10 08:11:00,64.0,-99.9,30.09,ESE,122,22.0,25.0,-999,-99.99,,,-99.99,,2013-02-10 14:11:00,
2013-02-10 08:22:00,64.0,-99.9,30.09,ESE,119,21.0,24.0,-999,-99.99,,,-99.99,,2013-02-10 14:22:00,
2013-02-10 08:32:00,64.0,-99.9,30.09,ESE,121,22.0,24.0,-999,-99.99,,,-99.99,,2013-02-10 14:32:00,
2013-02-10 08:42:00,64.0,-99.9,30.10,ESE,123,20.0,23.0,-999,-99.99,,,-99.99,,2013-02-10 14:42:00,
2013-02-10 08:52:00,65.0,-99.9,30.11,SE,124,19.0,22.0,-999,-99.99,,,-99.99,,2013-02-10 14:52:00,
2013-02-10 09:02:00,65.0,-99.9,30.11,SE,124,20.0,22.0,-999,-99.99,,,-99.99,,2013-02-10 15:02:00,
2013-02-10 09:12:00,64.0,-99.9,30.10,SE,124,20.0,23.0,-999,-99.99,,,-99.99,,2013-02-10 15:12:00,
2013-02-10 09:22:00,65.0,-99.9,30.11,SE,126,18.0,21.0,-999,-99.99,,,-99.99,,2013-02-10 15:22:00,
2013-02-10 09:32:00,65.0,-99.9,30.12,SE,128,19.0,21.0,-999,-99.99,,,-99.99,,2013-02-10 15:32:00,
2013-02-10 09:42:00,65.0,-99.9,30.11,SE,126,17.0,20.0,-999,-99.99,,,-99.99,,2013-02-10 15:42:00,
2013-02-10 09:52:00,65.0,-99.9,30.11,SE,129,19.0,21.0,-999,-99.99,,,-99.99,,2013-02-10 15:52:00,
2013-02-10 10:02:00,65.0,-99.9,30.11,SE,129,20.0,22.0,-999,-99.99,,,-99.99,,2013-02-10 16:02:00,
2013-02-10 10:12:00,65.0,-99.9,30.11,SE,131,20.0,23.0,-999,-99.99,,,-99.99,,2013-02-10 16:12:00,
2013-02-10 10:22:00,65.0,-99.9,30.11,SE,128,20.0,22.0,-999,-99.99,,,-99.99,,2013-02-10 16:22:00,
2013-02-10 10:32:00,65.0,-99.9,30.10,SE,129,20.0,22.0,-999,-99.99,,,-99.99,,2013-02-10 16:32:00,
2013-02-10 10:42:00,65.0,-99.9,30.10,SE,129,20.0,23.0,-999,-99.99,,,-99.99,,2013-02-10 16:42:00,
2013-02-10 10:52:00,65.0,-99.9,30.10,SE,132,21.0,23.0,-999,-99.99,,,-99.99,,2013-02-10 16:52:00,
2013-02-10 11:02:00,66.0,-99.9,30.10,SE,135,21.0,23.0,-999,-99.99,,,-99.99,,2013-02-10 17:02:00,
2013-02-10 11:12:00,65.0,-99.9,30.10,SE,133,21.0,22.0,-999,-99.99,,,-99.99,,2013-02-10 17:12:00,
2013-02-10 11:22:00,65.0,-99.9,30.10,SE,136,21.0,25.0,-999,-99.99,,,-99.99,,2013-02-10 17:22:00,
2013-02-10 11:32:00,66.0,-99.9,30.09,SE,137,22.0,24.0,-999,-99.99,,,-99.99,,2013-02-10 17:32:00,
2013-02-10 11:42:00,66.0,-99.9,30.08,SE,138,22.0,25.0,-999,-99.99,,,-99.99,,2013-02-10 17:42:00,
2013-02-10 11:53:00,66.0,-99.9,30.08,SE,137,22.0,26.0,-999,-99.99,,,-99.99,,2013-02-10 17:53:00,
2013-02-10 12:02:00,66.0,-99.9,30.07,SE,135,22.0,24.0,-999,-99.99,,,-99.99,,2013-02-10 18:02:00,
2013-02-10 12:12:00,66.0,-99.9,30.07,SE,135,21.0,25.0,-999,-99.99,,,-99.99,,2013-02-10 18:12:00,
2013-02-10 12:22:00,66.0,-99.9,30.06,SE,135,21.0,26.0,-999,-99.99,,,-99.99,,2013-02-10 18:22:00,
2013-02-10 12:32:00,66.0,-99.9,30.05,SE,136,23.0,28.0,-999,-99.99,,,-99.99,,2013-02-10 18:32:00,
2013-02-10 12:42:00,66.0,-99.9,30.04,SE,139,24.0,27.0,-999,-99.99,,,-99.99,,2013-02-10 18:42:00,
2013-02-10 12:52:00,66.0,-99.9,30.03,SE,138,25.0,28.0,-999,-99.99,,,-99.99,,2013-02-10 18:52:00,
2013-02-10 13:02:00,66.0,-99.9,30.03,SE,136,23.0,27.0,-999,-99.99,,,-99.99,,2013-02-10 19:02:00,
2013-02-10 13:12:00,66.0,-99.9,30.03,SE,136,23.0,27.0,-999,-99.99,,,-99.99,,2013-02-10 19:12:00,
2013-02-10 13:22:00,66.0,-99.9,30.01,SE,135,26.0,28.0,-999,-99.99,,,-99.99,,2013-02-10 19:22:00,
2013-02-10 13:32:00,66.0,-99.9,30.00,SE,133,25.0,27.0,-999,-99.99,,,-99.99,,2013-02-10 19:32:00,
2013-02-10 13:43:00,66.0,-99.9,30.00,SE,134,24.0,27.0,-999,-99.99,,,-99.99,,2013-02-10 19:43:00,
2013-02-10 13:52:00,66.0,-99.9,30.00,SE,134,24.0,27.0,-999,-99.99,,,-99.99,,2013-02-10 19:52:00,
2013-02-10 14:02:00,66.0,-99.9,29.98,SE,128,24.0,27.0,-999,-99.99,,,-99.99,,2013-02-10 20:02:00,
2013-02-10 14:11:00,66.0,-99.9,29.98,SE,128,24.0,27.0,-999,-99.99,,,-99.99,,2013-02-10 20:11:00,
2013-02-10 14:22:00,66.0,-99.9,30.01,SE,136,18.0,21.0,-999,-99.99,,,-99.99,,2013-02-10 20:22:00,
2013-02-10 14:32:00,66.0,-99.9,30.00,SE,125,15.0,16.0,-999,-99.99,,,-99.99,,2013-02-10 20:32:00,
2013-02-10 14:42:00,66.0,-99.9,30.02,SE,131,12.0,15.0,-999,-99.99,,,-99.99,,2013-02-10 20:42:00,
2013-02-10 14:53:00,66.0,-99.9,30.02,SE,135,15.0,16.0,-999,-99.99,,,-99.99,,2013-02-10 20:53:00,
2013-02-10 15:03:00,66.0,-99.9,30.01,SE,134,17.0,18.0,-999,-99.99,,,-99.99,,2013-02-10 21:03:00,
2013-02-10 15:12:00,66.0,-99.9,30.01,SE,136,17.0,19.0,-999,-99.99,,,-99.99,,2013-02-10 21:12:00,
2013-02-10 15:22:00,66.0,-99.9,30.01,SE,136,18.0,20.0,-999,-99.99,,,-99.99,,2013-02-10 21:22:00,
2013-02-10 15:32:00,66.0,-99.9,30.01,SE,136,15.0,16.0,-999,-99.99,,,-99.99,,2013-02-10 21:32:00,
2013-02-10 15:42:00,66.0,-99.9,30.01,SE,134,15.0,16.0,-999,-99.99,,,-99.99,,2013-02-10 21:42:00,
2013-02-10 15:52:00,66.0,-99.9,30.02,SE,136,14.0,15.0,-999,-99.99,,,-99.99,,2013-02-10 21:52:00,
2013-02-10 16:02:00,66.0,-99.9,30.02,SE,137,14.0,15.0,-999,-99.99,,,-99.99,,2013-02-10 22:02:00,
2013-02-10 16:12:00,66.0,-99.9,30.02,SE,136,15.0,16.0,-999,-99.99,,,-99.99,,2013-02-10 22:12:00,
2013-02-10 16:22:00,66.0,-99.9,30.01,SE,137,16.0,17.0,-999,-99.99,,,-99.99,,2013-02-10 22:22:00,
2013-02-10 16:32:00,66.0,-99.9,30.01,SE,135,16.0,18.0,-999,-99.99,,,-99.99,,2013-02-10 22:32:00,
2013-02-10 16:42:00,66.0,-99.9,30.01,SE,135,17.0,17.0,-999,-99.99,,,-99.99,,2013-02-10 22:42:00,
2013-02-10 16:53:00,66.0,-99.9,30.01,SE,139,13.0,15.0,-999,-99.99,,,-99.99,,2013-02-10 22:53:00,
2013-02-10 17:02:00,66.0,-99.9,30.01,SE,135,14.0,18.0,-999,-99.99,,,-99.99,,2013-02-10 23:02:00,
2013-02-10 17:12:00,66.0,-99.9,30.01,SE,133,18.0,25.0,-999,-99.99,,,-99.99,,2013-02-10 23:12:00,
2013-02-10 17:22:00,67.0,-99.9,30.01,SE,136,22.0,23.0,-999,-99.99,,,-99.99,,2013-02-10 23:22:00,
2013-02-10 17:32:00,68.0,-99.9,30.02,SSE,164,17.0,26.0,-999,-99.99,,,-99.99,,2013-02-10 23:32:00,
2013-02-10 17:42:00,68.0,-99.9,30.01,SSE,148,23.0,29.0,-999,-99.99,,,-99.99,,2013-02-10 23:42:00,
2013-02-10 17:52:00,67.0,-99.9,30.02,SSE,156,15.0,20.0,-999,-99.99,,,-99.99,,2013-02-10 23:52:00,
2013-02-10 18:02:00,66.0,-99.9,30.02,SSE,157,14.0,18.0,-999,-99.99,,,-99.99,,2013-02-11 00:02:00,
2013-02-10 18:11:00,66.0,-99.9,30.02,SE,146,16.0,18.0,-999,-99.99,,,-99.99,,2013-02-11 00:11:00,
2013-02-10 18:22:00,66.0,-99.9,30.02,SSE,154,16.0,18.0,-999,-99.99,,,-99.99,,2013-02-11 00:22:00,
2013-02-10 18:32:00,66.0,-99.9,30.03,SSE,160,14.0,16.0,-999,-99.99,,,-99.99,,2013-02-11 00:32:00,
2013-02-10 18:42:00,66.0,-99.9,30.03,SSE,162,13.0,17.0,-999,-99.99,,,-99.99,,2013-02-11 00:42:00,
2013-02-10 18:52:00,66.0,-99.9,30.03,SSE,163,13.0,17.0,-999,-99.99,,,-99.99,,2013-02-11 00:52:00,
2013-02-10 19:02:00,67.0,-99.9,30.03,SSE,161,15.0,20.0,-999,-99.99,,,-99.99,,2013-02-11 01:02:00,
2013-02-10 19:11:00,67.0,-99.9,30.03,SSE,159,15.0,19.0,-999,-99.99,,,-99.99,,2013-02-11 01:11:00,
2013-02-10 19:21:00,67.0,-99.9,30.03,SSE,159,16.0,18.0,-999,-99.99,,,-99.99,,2013-02-11 01:21:00,
2013-02-10 19:32:00,67.0,-99.9,30.04,SSE,167,14.0,17.0,-999,-99.99,,,-99.99,,2013-02-11 01:32:00,
2013-02-10 19:42:00,67.0,-99.9,30.04,SSE,165,14.0,17.0,-999,-99.99,,,-99.99,,2013-02-11 01:42:00,
2013-02-10 19:52:00,67.0,-99.9,30.04,South,171,14.0,16.0,-999,-99.99,,,-99.99,,2013-02-11 01:52:00,
2013-02-10 20:01:00,66.0,-99.9,30.04,SSE,168,14.0,16.0,-999,-99.99,,,-99.99,,2013-02-11 02:01:00,
2013-02-10 20:11:00,66.0,-99.9,30.04,South,169,14.0,18.0,-999,-99.99,,,-99.99,,2013-02-11 02:11:00,
2013-02-10 20:21:00,66.0,-99.9,30.05,South,169,13.0,16.0,-999,-99.99,,,-99.99,,2013-02-11 02:21:00,
2013-02-10 20:32:00,66.0,-99.9,30.05,SSE,167,15.0,18.0,-999,-99.99,,,-99.99,,2013-02-11 02:32:00,
2013-02-10 20:42:00,67.0,-99.9,30.06,South,171,13.0,15.0,-999,-99.99,,,-99.99,,2013-02-11 02:42:00,
2013-02-10 20:52:00,67.0,-99.9,30.06,South,177,13.0,16.0,-999,-99.99,,,-99.99,,2013-02-11 02:52:00,
2013-02-10 21:02:00,67.0,-99.9,30.06,South,173,12.0,16.0,-999,-99.99,,,-99.99,,2013-02-11 03:02:00,
2013-02-10 21:11:00,67.0,-99.9,30.06,South,172,14.0,15.0,-999,-99.99,,,-99.99,,2013-02-11 03:11:00,
2013-02-10 21:22:00,67.0,-99.9,30.06,South,177,11.0,13.0,-999,-99.99,,,-99.99,,2013-02-11 03:22:00,
2013-02-10 21:32:00,66.0,-99.9,30.06,South,173,11.0,14.0,-999,-99.99,,,-99.99,,2013-02-11 03:32:00,
2013-02-10 21:42:00,66.0,-99.9,30.06,South,179,11.0,13.0,-999,-99.99,,,-99.99,,2013-02-11 03:42:00,
2013-02-10 21:52:00,66.0,-99.9,30.06,South,170,11.0,15.0,-999,-99.99,,,-99.99,,2013-02-11 03:52:00,
2013-02-10 22:02:00,66.0,-99.9,30.06,South,178,11.0,15.0,-999,-99.99,,,-99.99,,2013-02-11 04:02:00,
2013-02-10 22:11:00,66.0,-99.9,30.06,South,172,11.0,15.0,-999,-99.99,,,-99.99,,2013-02-11 04:11:00,
2013-02-10 22:22:00,66.0,-99.9,30.06,South,191,10.0,14.0,-999,-99.99,,,-99.99,,2013-02-11 04:22:00,
2013-02-10 22:32:00,67.0,-99.9,30.06,South,177,12.0,16.0,-999,-99.99,,,-99.99,,2013-02-11 04:32:00,
2013-02-10 22:42:00,67.0,-99.9,30.06,SSW,210,7.0,14.0,-999,-99.99,,,-99.99,,2013-02-11 04:42:00,
2013-02-10 22:52:00,65.0,-99.9,30.06,South,179,7.0,9.0,-999,-99.99,,,-99.99,,2013-02-11 04:52:00,
2013-02-10 23:02:00,66.0,-99.9,30.06,SSW,210,4.0,6.0,-999,-99.99,,,-99.99,,2013-02-11 05:02:00,
2013-02-10 23:12:00,65.0,-99.9,30.06,SSW,205,4.0,8.0,-999,-99.99,,,-99.99,,2013-02-11 05:12:00,
2013-02-10 23:22:00,65.0,-99.9,30.06,South,188,6.0,7.0,-999,-99.99,,,-99.99,,2013-02-11 05:22:00,
2013-02-10 23:32:00,65.0,-99.9,30.06,South,171,8.0,9.0,-999,-99.99,,,-99.99,,2013-02-11 05:32:00,
2013-02-10 23:42:00,65.0,-99.9,30.06,South,172,6.0,8.0,-999,-99.99,,,-99.99,,2013-02-11 05:42:00,
2013-02-10 23:53:00,65.0,-99.9,30.06,SW,216,4.0,6.0,-999,-99.99,,,-99.99,,2013-02-11 05:53:00,